owner,sensor,date,latitude,longitude,vertical_datum,sea_water_temperature,qcFlag 
DISL,ioos:station:DISL:MHPA:1,2017-12-01T00:30:00Z,30.6671,-87.9365,-0.9,19.13,2 
DISL,ioos:station:DISL:MHPA:1,2017-12-01T01:30:00Z,30.6671,-87.9365,-0.9,19.15,2 
DISL,ioos:station:DISL:MHPA:1,2017-12-01T02:30:00Z,30.6671,-87.9365,-0.9,18.77,2 
DISL,ioos:station:DISL:MHPA:1,2017-12-01T03:30:00Z,30.6671,-87.9365,-0.9,18.57,2 
DISL,ioos:station:DISL:MHPA:1,2017-12-01T04:30:00Z,30.6671,-87.9365,-0.9,18.89,2 
DISL,ioos:station:DISL:MHPA:1,2017-12-01T05:30:00Z,30.6671,-87.9365,-0.9,18.85,2 
DISL,ioos:station:DISL:MHPA:1,2017-12-01T06:30:00Z,30.6671,-87.9365,-0.9,18.79,2 
DISL,ioos:station:DISL:MHPA:1,2017-12-01T07:30:00Z,30.6671,-87.9365,-0.9,18.89,2 
DISL,ioos:station:DISL:MHPA:1,2017-12-01T08:30:00Z,30.6671,-87.9365,-0.9,18.53,2 
DISL,ioos:station:DISL:MHPA:1,2017-12-01T09:30:00Z,30.6671,-87.9365,-0.9,18.5,2 
DISL,ioos:station:DISL:MHPA:1,2017-12-01T10:30:00Z,30.6671,-87.9365,-0.9,18.47,2 
DISL,ioos:station:DISL:MHPA:1,2017-12-01T11:30:00Z,30.6671,-87.9365,-0.9,18.29,2 
DISL,ioos:station:DISL:MHPA:1,2017-12-01T12:30:00Z,30.6671,-87.9365,-0.9,18.33,2 
DISL,ioos:station:DISL:MHPA:1,2017-12-01T13:30:00Z,30.6671,-87.9365,-0.9,18.34,2 
DISL,ioos:station:DISL:MHPA:1,2017-12-01T14:30:00Z,30.6671,-87.9365,-0.9,18.51,2 
DISL,ioos:station:DISL:MHPA:1,2017-12-01T15:30:00Z,30.6671,-87.9365,-0.9,18.34,2 
DISL,ioos:station:DISL:MHPA:1,2017-12-01T16:30:00Z,30.6671,-87.9365,-0.9,18.4,2 
DISL,ioos:station:DISL:MHPA:1,2017-12-01T17:30:00Z,30.6671,-87.9365,-0.9,18.41,2 
DISL,ioos:station:DISL:MHPA:1,2017-12-01T18:30:00Z,30.6671,-87.9365,-0.9,18.55,2 
DISL,ioos:station:DISL:MHPA:1,2017-12-01T19:30:00Z,30.6671,-87.9365,-0.9,18.89,2 
DISL,ioos:station:DISL:MHPA:1,2017-12-01T20:30:00Z,30.6671,-87.9365,-0.9,18.64,2 
DISL,ioos:station:DISL:MHPA:1,2017-12-01T21:30:00Z,30.6671,-87.9365,-0.9,19.5,2 
DISL,ioos:station:DISL:MHPA:1,2017-12-01T22:30:00Z,30.6671,-87.9365,-0.9,19.19,2 
DISL,ioos:station:DISL:MHPA:1,2017-12-01T23:30:00Z,30.6671,-87.9365,-0.9,19.46,2 
DISL,ioos:station:DISL:MHPA:1,2017-12-02T00:30:00Z,30.6671,-87.9365,-0.9,19.46,2 
DISL,ioos:station:DISL:MHPA:1,2017-12-02T01:30:00Z,30.6671,-87.9365,-0.9,19.21,2 
DISL,ioos:station:DISL:MHPA:1,2017-12-02T02:30:00Z,30.6671,-87.9365,-0.9,19.53,2 
DISL,ioos:station:DISL:MHPA:1,2017-12-02T03:30:00Z,30.6671,-87.9365,-0.9,19.25,2 
DISL,ioos:station:DISL:MHPA:1,2017-12-02T04:30:00Z,30.6671,-87.9365,-0.9,19.21,2 
DISL,ioos:station:DISL:MHPA:1,2017-12-02T05:30:00Z,30.6671,-87.9365,-0.9,19.14,2 
DISL,ioos:station:DISL:MHPA:1,2017-12-02T06:30:00Z,30.6671,-87.9365,-0.9,19.11,2 
DISL,ioos:station:DISL:MHPA:1,2017-12-02T07:30:00Z,30.6671,-87.9365,-0.9,19.12,2 
DISL,ioos:station:DISL:MHPA:1,2017-12-02T08:30:00Z,30.6671,-87.9365,-0.9,18.98,2 
DISL,ioos:station:DISL:MHPA:1,2017-12-02T09:30:00Z,30.6671,-87.9365,-0.9,18.69,2 
DISL,ioos:station:DISL:MHPA:1,2017-12-02T10:30:00Z,30.6671,-87.9365,-0.9,18.72,2 
DISL,ioos:station:DISL:MHPA:1,2017-12-02T11:30:00Z,30.6671,-87.9365,-0.9,18.58,2 
DISL,ioos:station:DISL:MHPA:1,2017-12-02T12:30:00Z,30.6671,-87.9365,-0.9,18.57,2 
DISL,ioos:station:DISL:MHPA:1,2017-12-02T13:30:00Z,30.6671,-87.9365,-0.9,18.46,2 
DISL,ioos:station:DISL:MHPA:1,2017-12-02T14:30:00Z,30.6671,-87.9365,-0.9,18.48,2 
DISL,ioos:station:DISL:MHPA:1,2017-12-02T15:30:00Z,30.6671,-87.9365,-0.9,18.75,2 
DISL,ioos:station:DISL:MHPA:1,2017-12-02T16:30:00Z,30.6671,-87.9365,-0.9,18.54,2 
DISL,ioos:station:DISL:MHPA:1,2017-12-02T17:30:00Z,30.6671,-87.9365,-0.9,18.59,2 
DISL,ioos:station:DISL:MHPA:1,2017-12-02T18:30:00Z,30.6671,-87.9365,-0.9,18.69,2 
DISL,ioos:station:DISL:MHPA:1,2017-12-02T19:30:00Z,30.6671,-87.9365,-0.9,19.01,2 
DISL,ioos:station:DISL:MHPA:1,2017-12-02T20:30:00Z,30.6671,-87.9365,-0.9,19.45,2 
DISL,ioos:station:DISL:MHPA:1,2017-12-02T21:30:00Z,30.6671,-87.9365,-0.9,19.52,2 
DISL,ioos:station:DISL:MHPA:1,2017-12-02T22:30:00Z,30.6671,-87.9365,-0.9,19.3,2 
DISL,ioos:station:DISL:MHPA:1,2017-12-02T23:30:00Z,30.6671,-87.9365,-0.9,19.06,2 
DISL,ioos:station:DISL:MHPA:1,2017-12-03T00:30:00Z,30.6671,-87.9365,-0.9,19.11,2 
DISL,ioos:station:DISL:MHPA:1,2017-12-03T01:30:00Z,30.6671,-87.9365,-0.9,20.25,2 
DISL,ioos:station:DISL:MHPA:1,2017-12-03T02:30:00Z,30.6671,-87.9365,-0.9,20.06,2 
DISL,ioos:station:DISL:MHPA:1,2017-12-03T03:30:00Z,30.6671,-87.9365,-0.9,19.78,2 
DISL,ioos:station:DISL:MHPA:1,2017-12-03T04:30:00Z,30.6671,-87.9365,-0.9,19.6,2 
DISL,ioos:station:DISL:MHPA:1,2017-12-03T05:30:00Z,30.6671,-87.9365,-0.9,19.44,2 
DISL,ioos:station:DISL:MHPA:1,2017-12-03T06:30:00Z,30.6671,-87.9365,-0.9,19.49,2 
DISL,ioos:station:DISL:MHPA:1,2017-12-03T07:30:00Z,30.6671,-87.9365,-0.9,19.46,2 
DISL,ioos:station:DISL:MHPA:1,2017-12-03T08:30:00Z,30.6671,-87.9365,-0.9,19.35,2 
DISL,ioos:station:DISL:MHPA:1,2017-12-03T09:30:00Z,30.6671,-87.9365,-0.9,19.25,2 
DISL,ioos:station:DISL:MHPA:1,2017-12-03T10:30:00Z,30.6671,-87.9365,-0.9,19.22,2 
DISL,ioos:station:DISL:MHPA:1,2017-12-03T11:30:00Z,30.6671,-87.9365,-0.9,19.24,2 
DISL,ioos:station:DISL:MHPA:1,2017-12-03T12:30:00Z,30.6671,-87.9365,-0.9,19.22,2 
DISL,ioos:station:DISL:MHPA:1,2017-12-03T13:30:00Z,30.6671,-87.9365,-0.9,19.02,2 
DISL,ioos:station:DISL:MHPA:1,2017-12-03T14:30:00Z,30.6671,-87.9365,-0.9,19.06,2 
DISL,ioos:station:DISL:MHPA:1,2017-12-03T15:30:00Z,30.6671,-87.9365,-0.9,19.04,2 
DISL,ioos:station:DISL:MHPA:1,2017-12-03T16:30:00Z,30.6671,-87.9365,-0.9,18.97,2 
DISL,ioos:station:DISL:MHPA:1,2017-12-03T17:30:00Z,30.6671,-87.9365,-0.9,19.15,2 
DISL,ioos:station:DISL:MHPA:1,2017-12-03T18:30:00Z,30.6671,-87.9365,-0.9,19.1,2 
DISL,ioos:station:DISL:MHPA:1,2017-12-03T19:30:00Z,30.6671,-87.9365,-0.9,19.18,2 
DISL,ioos:station:DISL:MHPA:1,2017-12-03T20:30:00Z,30.6671,-87.9365,-0.9,19.43,2 
DISL,ioos:station:DISL:MHPA:1,2017-12-03T21:30:00Z,30.6671,-87.9365,-0.9,19.4,2 
DISL,ioos:station:DISL:MHPA:1,2017-12-03T22:30:00Z,30.6671,-87.9365,-0.9,19.66,2 
DISL,ioos:station:DISL:MHPA:1,2017-12-03T23:30:00Z,30.6671,-87.9365,-0.9,19.65,2 
DISL,ioos:station:DISL:MHPA:1,2017-12-04T00:30:00Z,30.6671,-87.9365,-0.9,19.55,2 
DISL,ioos:station:DISL:MHPA:1,2017-12-04T01:30:00Z,30.6671,-87.9365,-0.9,19.51,2 
DISL,ioos:station:DISL:MHPA:1,2017-12-04T02:00:00Z,30.6671,-87.9365,-0.9,19.6,2 
DISL,ioos:station:DISL:MHPA:1,2017-12-04T03:30:00Z,30.6671,-87.9365,-0.9,19.6,2 
DISL,ioos:station:DISL:MHPA:1,2017-12-04T04:30:00Z,30.6671,-87.9365,-0.9,19.28,2 
DISL,ioos:station:DISL:MHPA:1,2017-12-04T05:30:00Z,30.6671,-87.9365,-0.9,19.28,2 
DISL,ioos:station:DISL:MHPA:1,2017-12-04T06:30:00Z,30.6671,-87.9365,-0.9,19.08,2 
DISL,ioos:station:DISL:MHPA:1,2017-12-04T07:30:00Z,30.6671,-87.9365,-0.9,19.02,2 
DISL,ioos:station:DISL:MHPA:1,2017-12-04T08:30:00Z,30.6671,-87.9365,-0.9,19.03,2 
DISL,ioos:station:DISL:MHPA:1,2017-12-04T09:30:00Z,30.6671,-87.9365,-0.9,18.97,2 
DISL,ioos:station:DISL:MHPA:1,2017-12-04T10:30:00Z,30.6671,-87.9365,-0.9,18.94,2 
DISL,ioos:station:DISL:MHPA:1,2017-12-04T11:30:00Z,30.6671,-87.9365,-0.9,18.93,2 
DISL,ioos:station:DISL:MHPA:1,2017-12-04T12:30:00Z,30.6671,-87.9365,-0.9,18.81,2 
DISL,ioos:station:DISL:MHPA:1,2017-12-04T13:30:00Z,30.6671,-87.9365,-0.9,18.77,2 
DISL,ioos:station:DISL:MHPA:1,2017-12-04T14:30:00Z,30.6671,-87.9365,-0.9,18.57,2 
DISL,ioos:station:DISL:MHPA:1,2017-12-04T15:30:00Z,30.6671,-87.9365,-0.9,18.39,2 
DISL,ioos:station:DISL:MHPA:1,2017-12-04T16:30:00Z,30.6671,-87.9365,-0.9,18.47,2 
DISL,ioos:station:DISL:MHPA:1,2017-12-04T17:30:00Z,30.6671,-87.9365,-0.9,18.61,2 
DISL,ioos:station:DISL:MHPA:1,2017-12-04T18:30:00Z,30.6671,-87.9365,-0.9,18.97,2 
DISL,ioos:station:DISL:MHPA:1,2017-12-04T19:30:00Z,30.6671,-87.9365,-0.9,19.36,2 
DISL,ioos:station:DISL:MHPA:1,2017-12-04T20:30:00Z,30.6671,-87.9365,-0.9,19.79,2 
DISL,ioos:station:DISL:MHPA:1,2017-12-04T21:30:00Z,30.6671,-87.9365,-0.9,20.37,2 
DISL,ioos:station:DISL:MHPA:1,2017-12-04T22:30:00Z,30.6671,-87.9365,-0.9,20.6,2 
DISL,ioos:station:DISL:MHPA:1,2017-12-04T23:30:00Z,30.6671,-87.9365,-0.9,20.07,2 
DISL,ioos:station:DISL:MHPA:1,2017-12-05T00:30:00Z,30.6671,-87.9365,-0.9,19.8,2 
DISL,ioos:station:DISL:MHPA:1,2017-12-05T01:30:00Z,30.6671,-87.9365,-0.9,20.01,2 
DISL,ioos:station:DISL:MHPA:1,2017-12-05T02:30:00Z,30.6671,-87.9365,-0.9,19.94,2 
DISL,ioos:station:DISL:MHPA:1,2017-12-05T03:30:00Z,30.6671,-87.9365,-0.9,19.67,2 
DISL,ioos:station:DISL:MHPA:1,2017-12-05T04:30:00Z,30.6671,-87.9365,-0.9,19.63,2 
DISL,ioos:station:DISL:MHPA:1,2017-12-05T05:30:00Z,30.6671,-87.9365,-0.9,19.61,2 
DISL,ioos:station:DISL:MHPA:1,2017-12-05T06:30:00Z,30.6671,-87.9365,-0.9,19.64,2 
DISL,ioos:station:DISL:MHPA:1,2017-12-05T07:30:00Z,30.6671,-87.9365,-0.9,19.63,2 
DISL,ioos:station:DISL:MHPA:1,2017-12-05T08:30:00Z,30.6671,-87.9365,-0.9,19.56,2 
DISL,ioos:station:DISL:MHPA:1,2017-12-05T09:30:00Z,30.6671,-87.9365,-0.9,19.55,2 
DISL,ioos:station:DISL:MHPA:1,2017-12-05T10:30:00Z,30.6671,-87.9365,-0.9,19.51,2 
DISL,ioos:station:DISL:MHPA:1,2017-12-05T11:30:00Z,30.6671,-87.9365,-0.9,19.43,2 
DISL,ioos:station:DISL:MHPA:1,2017-12-05T12:30:00Z,30.6671,-87.9365,-0.9,19.34,2 
DISL,ioos:station:DISL:MHPA:1,2017-12-05T13:30:00Z,30.6671,-87.9365,-0.9,19.27,2 
DISL,ioos:station:DISL:MHPA:1,2017-12-05T14:30:00Z,30.6671,-87.9365,-0.9,19.32,2 
DISL,ioos:station:DISL:MHPA:1,2017-12-05T15:30:00Z,30.6671,-87.9365,-0.9,19.5,2 
DISL,ioos:station:DISL:MHPA:1,2017-12-05T16:30:00Z,30.6671,-87.9365,-0.9,19.61,2 
DISL,ioos:station:DISL:MHPA:1,2017-12-05T17:30:00Z,30.6671,-87.9365,-0.9,19.9,2 
DISL,ioos:station:DISL:MHPA:1,2017-12-05T18:30:00Z,30.6671,-87.9365,-0.9,20.06,2 
DISL,ioos:station:DISL:MHPA:1,2017-12-05T19:30:00Z,30.6671,-87.9365,-0.9,20.01,2 
DISL,ioos:station:DISL:MHPA:1,2017-12-05T20:30:00Z,30.6671,-87.9365,-0.9,20.61,2 
DISL,ioos:station:DISL:MHPA:1,2017-12-05T21:30:00Z,30.6671,-87.9365,-0.9,21.15,2 
DISL,ioos:station:DISL:MHPA:1,2017-12-05T22:30:00Z,30.6671,-87.9365,-0.9,21.5,2 
DISL,ioos:station:DISL:MHPA:1,2017-12-05T23:30:00Z,30.6671,-87.9365,-0.9,21.5,2 
DISL,ioos:station:DISL:MHPA:1,2017-12-06T00:30:00Z,30.6671,-87.9365,-0.9,21.25,2 
DISL,ioos:station:DISL:MHPA:1,2017-12-06T01:30:00Z,30.6671,-87.9365,-0.9,21.01,2 
DISL,ioos:station:DISL:MHPA:1,2017-12-06T02:30:00Z,30.6671,-87.9365,-0.9,20.68,2 
DISL,ioos:station:DISL:MHPA:1,2017-12-06T03:30:00Z,30.6671,-87.9365,-0.9,20.74,2 
DISL,ioos:station:DISL:MHPA:1,2017-12-06T04:30:00Z,30.6671,-87.9365,-0.9,20.71,2 
DISL,ioos:station:DISL:MHPA:1,2017-12-06T05:30:00Z,30.6671,-87.9365,-0.9,20.52,2 
DISL,ioos:station:DISL:MHPA:1,2017-12-06T06:30:00Z,30.6671,-87.9365,-0.9,20.34,2 
DISL,ioos:station:DISL:MHPA:1,2017-12-06T07:30:00Z,30.6671,-87.9365,-0.9,20.19,2 
DISL,ioos:station:DISL:MHPA:1,2017-12-06T08:30:00Z,30.6671,-87.9365,-0.9,19.83,2 
DISL,ioos:station:DISL:MHPA:1,2017-12-06T09:30:00Z,30.6671,-87.9365,-0.9,19.79,2 
DISL,ioos:station:DISL:MHPA:1,2017-12-06T10:30:00Z,30.6671,-87.9365,-0.9,19.54,2 
DISL,ioos:station:DISL:MHPA:1,2017-12-06T11:30:00Z,30.6671,-87.9365,-0.9,19.38,2 
DISL,ioos:station:DISL:MHPA:1,2017-12-06T12:30:00Z,30.6671,-87.9365,-0.9,19.23,2 
DISL,ioos:station:DISL:MHPA:1,2017-12-06T13:30:00Z,30.6671,-87.9365,-0.9,19.4,2 
DISL,ioos:station:DISL:MHPA:1,2017-12-06T14:30:00Z,30.6671,-87.9365,-0.9,17.82,2 
DISL,ioos:station:DISL:MHPA:1,2017-12-06T15:30:00Z,30.6671,-87.9365,-0.9,18.69,2 
DISL,ioos:station:DISL:MHPA:1,2017-12-06T16:30:00Z,30.6671,-87.9365,-0.9,17.77,2 
DISL,ioos:station:DISL:MHPA:1,2017-12-06T17:30:00Z,30.6671,-87.9365,-0.9,17.63,2 
DISL,ioos:station:DISL:MHPA:1,2017-12-06T18:30:00Z,30.6671,-87.9365,-0.9,17.0,2 
DISL,ioos:station:DISL:MHPA:1,2017-12-06T19:30:00Z,30.6671,-87.9365,-0.9,17.5,2 
DISL,ioos:station:DISL:MHPA:1,2017-12-06T20:30:00Z,30.6671,-87.9365,-0.9,17.1,2 
DISL,ioos:station:DISL:MHPA:1,2017-12-06T21:30:00Z,30.6671,-87.9365,-0.9,17.35,2 
DISL,ioos:station:DISL:MHPA:1,2017-12-06T22:30:00Z,30.6671,-87.9365,-0.9,16.77,2 
DISL,ioos:station:DISL:MHPA:1,2017-12-06T23:30:00Z,30.6671,-87.9365,-0.9,17.23,2 
DISL,ioos:station:DISL:MHPA:1,2017-12-07T00:30:00Z,30.6671,-87.9365,-0.9,16.84,2 
DISL,ioos:station:DISL:MHPA:1,2017-12-07T01:30:00Z,30.6671,-87.9365,-0.9,17.22,2 
DISL,ioos:station:DISL:MHPA:1,2017-12-07T02:30:00Z,30.6671,-87.9365,-0.9,14.63,2 
DISL,ioos:station:DISL:MHPA:1,2017-12-07T03:30:00Z,30.6671,-87.9365,-0.9,15.45,2 
DISL,ioos:station:DISL:MHPA:1,2017-12-07T04:30:00Z,30.6671,-87.9365,-0.9,15.09,2 
DISL,ioos:station:DISL:MHPA:1,2017-12-07T05:30:00Z,30.6671,-87.9365,-0.9,14.84,2 
DISL,ioos:station:DISL:MHPA:1,2017-12-07T06:30:00Z,30.6671,-87.9365,-0.9,14.93,2 
DISL,ioos:station:DISL:MHPA:1,2017-12-07T07:30:00Z,30.6671,-87.9365,-0.9,15.04,2 
DISL,ioos:station:DISL:MHPA:1,2017-12-07T08:30:00Z,30.6671,-87.9365,-0.9,14.63,2 
DISL,ioos:station:DISL:MHPA:1,2017-12-07T09:30:00Z,30.6671,-87.9365,-0.9,14.61,2 
DISL,ioos:station:DISL:MHPA:1,2017-12-07T10:30:00Z,30.6671,-87.9365,-0.9,14.37,2 
DISL,ioos:station:DISL:MHPA:1,2017-12-07T11:30:00Z,30.6671,-87.9365,-0.9,14.3,2 
DISL,ioos:station:DISL:MHPA:1,2017-12-07T12:30:00Z,30.6671,-87.9365,-0.9,14.42,2 
DISL,ioos:station:DISL:MHPA:1,2017-12-07T13:30:00Z,30.6671,-87.9365,-0.9,14.36,2 
DISL,ioos:station:DISL:MHPA:1,2017-12-07T14:30:00Z,30.6671,-87.9365,-0.9,14.38,2 
DISL,ioos:station:DISL:MHPA:1,2017-12-07T15:30:00Z,30.6671,-87.9365,-0.9,14.73,2 
DISL,ioos:station:DISL:MHPA:1,2017-12-07T16:30:00Z,30.6671,-87.9365,-0.9,14.57,2 
DISL,ioos:station:DISL:MHPA:1,2017-12-07T17:30:00Z,30.6671,-87.9365,-0.9,14.69,2 
DISL,ioos:station:DISL:MHPA:1,2017-12-07T18:30:00Z,30.6671,-87.9365,-0.9,14.69,2 
DISL,ioos:station:DISL:MHPA:1,2017-12-07T19:30:00Z,30.6671,-87.9365,-0.9,14.75,2 
DISL,ioos:station:DISL:MHPA:1,2017-12-07T20:00:00Z,30.6671,-87.9365,-0.9,15.01,2 
DISL,ioos:station:DISL:MHPA:1,2017-12-07T22:30:00Z,30.6671,-87.9365,-0.9,14.93,2 
DISL,ioos:station:DISL:MHPA:1,2017-12-07T23:30:00Z,30.6671,-87.9365,-0.9,14.73,2 
DISL,ioos:station:DISL:MHPA:1,2017-12-08T00:30:00Z,30.6671,-87.9365,-0.9,14.65,2 
DISL,ioos:station:DISL:MHPA:1,2017-12-08T01:30:00Z,30.6671,-87.9365,-0.9,14.79,2 
DISL,ioos:station:DISL:MHPA:1,2017-12-08T02:30:00Z,30.6671,-87.9365,-0.9,13.55,2 
DISL,ioos:station:DISL:MHPA:1,2017-12-08T03:30:00Z,30.6671,-87.9365,-0.9,13.87,2 
DISL,ioos:station:DISL:MHPA:1,2017-12-08T04:30:00Z,30.6671,-87.9365,-0.9,12.56,2 
DISL,ioos:station:DISL:MHPA:1,2017-12-08T05:30:00Z,30.6671,-87.9365,-0.9,11.84,2 
DISL,ioos:station:DISL:MHPA:1,2017-12-08T06:30:00Z,30.6671,-87.9365,-0.9,12.82,2 
DISL,ioos:station:DISL:MHPA:1,2017-12-08T07:30:00Z,30.6671,-87.9365,-0.9,13.63,2 
DISL,ioos:station:DISL:MHPA:1,2017-12-08T08:30:00Z,30.6671,-87.9365,-0.9,13.9,2 
DISL,ioos:station:DISL:MHPA:1,2017-12-08T09:30:00Z,30.6671,-87.9365,-0.9,13.2,2 
DISL,ioos:station:DISL:MHPA:1,2017-12-08T10:30:00Z,30.6671,-87.9365,-0.9,13.17,2 
DISL,ioos:station:DISL:MHPA:1,2017-12-08T11:30:00Z,30.6671,-87.9365,-0.9,13.07,2 
DISL,ioos:station:DISL:MHPA:1,2017-12-08T12:30:00Z,30.6671,-87.9365,-0.9,12.94,2 
DISL,ioos:station:DISL:MHPA:1,2017-12-08T13:30:00Z,30.6671,-87.9365,-0.9,12.92,2 
DISL,ioos:station:DISL:MHPA:1,2017-12-08T14:30:00Z,30.6671,-87.9365,-0.9,12.59,2 
DISL,ioos:station:DISL:MHPA:1,2017-12-08T15:30:00Z,30.6671,-87.9365,-0.9,12.32,2 
DISL,ioos:station:DISL:MHPA:1,2017-12-08T16:30:00Z,30.6671,-87.9365,-0.9,12.51,2 
DISL,ioos:station:DISL:MHPA:1,2017-12-08T17:30:00Z,30.6671,-87.9365,-0.9,12.91,2 
DISL,ioos:station:DISL:MHPA:1,2017-12-08T18:30:00Z,30.6671,-87.9365,-0.9,13.13,2 
DISL,ioos:station:DISL:MHPA:1,2017-12-08T19:30:00Z,30.6671,-87.9365,-0.9,12.92,2 
DISL,ioos:station:DISL:MHPA:1,2017-12-08T20:30:00Z,30.6671,-87.9365,-0.9,12.81,2 
DISL,ioos:station:DISL:MHPA:1,2017-12-08T21:30:00Z,30.6671,-87.9365,-0.9,13.17,2 
DISL,ioos:station:DISL:MHPA:1,2017-12-08T22:30:00Z,30.6671,-87.9365,-0.9,12.01,2 
DISL,ioos:station:DISL:MHPA:1,2017-12-08T23:30:00Z,30.6671,-87.9365,-0.9,12.84,2 
DISL,ioos:station:DISL:MHPA:1,2017-12-09T00:30:00Z,30.6671,-87.9365,-0.9,11.69,2 
DISL,ioos:station:DISL:MHPA:1,2017-12-09T01:30:00Z,30.6671,-87.9365,-0.9,11.61,2 
DISL,ioos:station:DISL:MHPA:1,2017-12-09T02:30:00Z,30.6671,-87.9365,-0.9,11.29,2 
DISL,ioos:station:DISL:MHPA:1,2017-12-09T03:30:00Z,30.6671,-87.9365,-0.9,11.44,2 
DISL,ioos:station:DISL:MHPA:1,2017-12-09T04:30:00Z,30.6671,-87.9365,-0.9,10.6,2 
DISL,ioos:station:DISL:MHPA:1,2017-12-09T05:30:00Z,30.6671,-87.9365,-0.9,11.51,2 
DISL,ioos:station:DISL:MHPA:1,2017-12-09T06:30:00Z,30.6671,-87.9365,-0.9,10.85,2 
DISL,ioos:station:DISL:MHPA:1,2017-12-09T07:30:00Z,30.6671,-87.9365,-0.9,9.14,2 
DISL,ioos:station:DISL:MHPA:1,2017-12-09T08:30:00Z,30.6671,-87.9365,-0.9,7.84,2 
DISL,ioos:station:DISL:MHPA:1,2017-12-09T09:30:00Z,30.6671,-87.9365,-0.9,7.98,2 
DISL,ioos:station:DISL:MHPA:1,2017-12-09T10:30:00Z,30.6671,-87.9365,-0.9,7.95,2 
DISL,ioos:station:DISL:MHPA:1,2017-12-09T11:30:00Z,30.6671,-87.9365,-0.9,7.8,2 
DISL,ioos:station:DISL:MHPA:1,2017-12-09T12:30:00Z,30.6671,-87.9365,-0.9,8.03,2 
DISL,ioos:station:DISL:MHPA:1,2017-12-09T13:30:00Z,30.6671,-87.9365,-0.9,8.31,2 
DISL,ioos:station:DISL:MHPA:1,2017-12-09T14:30:00Z,30.6671,-87.9365,-0.9,8.3,2 
DISL,ioos:station:DISL:MHPA:1,2017-12-09T15:30:00Z,30.6671,-87.9365,-0.9,8.05,2 
DISL,ioos:station:DISL:MHPA:1,2017-12-09T16:30:00Z,30.6671,-87.9365,-0.9,8.5,2 
DISL,ioos:station:DISL:MHPA:1,2017-12-09T17:30:00Z,30.6671,-87.9365,-0.9,8.85,2 
DISL,ioos:station:DISL:MHPA:1,2017-12-09T18:30:00Z,30.6671,-87.9365,-0.9,9.81,2 
DISL,ioos:station:DISL:MHPA:1,2017-12-09T19:30:00Z,30.6671,-87.9365,-0.9,9.72,2 
DISL,ioos:station:DISL:MHPA:1,2017-12-09T20:30:00Z,30.6671,-87.9365,-0.9,10.77,2 
DISL,ioos:station:DISL:MHPA:1,2017-12-09T21:30:00Z,30.6671,-87.9365,-0.9,10.7,2 
DISL,ioos:station:DISL:MHPA:1,2017-12-09T22:30:00Z,30.6671,-87.9365,-0.9,10.32,2 
DISL,ioos:station:DISL:MHPA:1,2017-12-09T23:30:00Z,30.6671,-87.9365,-0.9,10.55,2 
DISL,ioos:station:DISL:MHPA:1,2017-12-10T00:30:00Z,30.6671,-87.9365,-0.9,10.22,2 
DISL,ioos:station:DISL:MHPA:1,2017-12-10T01:30:00Z,30.6671,-87.9365,-0.9,10.42,2 
DISL,ioos:station:DISL:MHPA:1,2017-12-10T02:30:00Z,30.6671,-87.9365,-0.9,9.46,2 
DISL,ioos:station:DISL:MHPA:1,2017-12-10T03:30:00Z,30.6671,-87.9365,-0.9,9.53,2 
DISL,ioos:station:DISL:MHPA:1,2017-12-10T04:30:00Z,30.6671,-87.9365,-0.9,10.24,2 
DISL,ioos:station:DISL:MHPA:1,2017-12-10T05:30:00Z,30.6671,-87.9365,-0.9,9.86,2 
DISL,ioos:station:DISL:MHPA:1,2017-12-10T06:30:00Z,30.6671,-87.9365,-0.9,9.53,2 
DISL,ioos:station:DISL:MHPA:1,2017-12-10T07:30:00Z,30.6671,-87.9365,-0.9,9.65,2 
DISL,ioos:station:DISL:MHPA:1,2017-12-10T08:30:00Z,30.6671,-87.9365,-0.9,9.11,2 
DISL,ioos:station:DISL:MHPA:1,2017-12-10T09:30:00Z,30.6671,-87.9365,-0.9,9.91,2 
DISL,ioos:station:DISL:MHPA:1,2017-12-10T10:30:00Z,30.6671,-87.9365,-0.9,9.93,2 
DISL,ioos:station:DISL:MHPA:1,2017-12-10T11:30:00Z,30.6671,-87.9365,-0.9,9.8,2 
DISL,ioos:station:DISL:MHPA:1,2017-12-10T12:30:00Z,30.6671,-87.9365,-0.9,9.44,2 
DISL,ioos:station:DISL:MHPA:1,2017-12-10T13:30:00Z,30.6671,-87.9365,-0.9,9.79,2 
DISL,ioos:station:DISL:MHPA:1,2017-12-10T14:30:00Z,30.6671,-87.9365,-0.9,9.98,2 
DISL,ioos:station:DISL:MHPA:1,2017-12-10T15:30:00Z,30.6671,-87.9365,-0.9,9.88,2 
DISL,ioos:station:DISL:MHPA:1,2017-12-10T16:30:00Z,30.6671,-87.9365,-0.9,9.95,2 
DISL,ioos:station:DISL:MHPA:1,2017-12-10T17:30:00Z,30.6671,-87.9365,-0.9,10.28,2 
DISL,ioos:station:DISL:MHPA:1,2017-12-10T18:30:00Z,30.6671,-87.9365,-0.9,10.5,2 
DISL,ioos:station:DISL:MHPA:1,2017-12-10T19:30:00Z,30.6671,-87.9365,-0.9,10.93,2 
DISL,ioos:station:DISL:MHPA:1,2017-12-10T20:30:00Z,30.6671,-87.9365,-0.9,10.58,2 
DISL,ioos:station:DISL:MHPA:1,2017-12-10T21:30:00Z,30.6671,-87.9365,-0.9,10.56,2 
DISL,ioos:station:DISL:MHPA:1,2017-12-10T22:30:00Z,30.6671,-87.9365,-0.9,10.9,2 
DISL,ioos:station:DISL:MHPA:1,2017-12-10T23:30:00Z,30.6671,-87.9365,-0.9,11.97,2 
DISL,ioos:station:DISL:MHPA:1,2017-12-11T00:30:00Z,30.6671,-87.9365,-0.9,11.78,2 
DISL,ioos:station:DISL:MHPA:1,2017-12-11T01:30:00Z,30.6671,-87.9365,-0.9,11.68,2 
DISL,ioos:station:DISL:MHPA:1,2017-12-11T02:30:00Z,30.6671,-87.9365,-0.9,11.72,2 
DISL,ioos:station:DISL:MHPA:1,2017-12-11T03:30:00Z,30.6671,-87.9365,-0.9,11.64,2 
DISL,ioos:station:DISL:MHPA:1,2017-12-11T04:30:00Z,30.6671,-87.9365,-0.9,11.64,2 
DISL,ioos:station:DISL:MHPA:1,2017-12-11T05:30:00Z,30.6671,-87.9365,-0.9,11.6,2 
DISL,ioos:station:DISL:MHPA:1,2017-12-11T06:30:00Z,30.6671,-87.9365,-0.9,11.58,2 
DISL,ioos:station:DISL:MHPA:1,2017-12-11T07:30:00Z,30.6671,-87.9365,-0.9,11.89,2 
DISL,ioos:station:DISL:MHPA:1,2017-12-11T08:30:00Z,30.6671,-87.9365,-0.9,11.69,2 
DISL,ioos:station:DISL:MHPA:1,2017-12-11T09:30:00Z,30.6671,-87.9365,-0.9,11.13,2 
DISL,ioos:station:DISL:MHPA:1,2017-12-11T10:30:00Z,30.6671,-87.9365,-0.9,11.25,2 
DISL,ioos:station:DISL:MHPA:1,2017-12-11T11:30:00Z,30.6671,-87.9365,-0.9,11.26,2 
DISL,ioos:station:DISL:MHPA:1,2017-12-11T12:30:00Z,30.6671,-87.9365,-0.9,11.39,2 
DISL,ioos:station:DISL:MHPA:1,2017-12-11T13:30:00Z,30.6671,-87.9365,-0.9,11.36,2 
DISL,ioos:station:DISL:MHPA:1,2017-12-11T14:30:00Z,30.6671,-87.9365,-0.9,11.28,2 
DISL,ioos:station:DISL:MHPA:1,2017-12-11T15:30:00Z,30.6671,-87.9365,-0.9,10.87,2 
DISL,ioos:station:DISL:MHPA:1,2017-12-11T16:30:00Z,30.6671,-87.9365,-0.9,10.95,2 
DISL,ioos:station:DISL:MHPA:1,2017-12-11T17:30:00Z,30.6671,-87.9365,-0.9,10.87,2 
DISL,ioos:station:DISL:MHPA:1,2017-12-11T18:30:00Z,30.6671,-87.9365,-0.9,10.71,2 
DISL,ioos:station:DISL:MHPA:1,2017-12-11T19:30:00Z,30.6671,-87.9365,-0.9,11.45,2 
DISL,ioos:station:DISL:MHPA:1,2017-12-11T20:30:00Z,30.6671,-87.9365,-0.9,12.29,2 
DISL,ioos:station:DISL:MHPA:1,2017-12-11T21:30:00Z,30.6671,-87.9365,-0.9,12.14,2 
DISL,ioos:station:DISL:MHPA:1,2017-12-11T22:30:00Z,30.6671,-87.9365,-0.9,12.6,2 
DISL,ioos:station:DISL:MHPA:1,2017-12-11T23:30:00Z,30.6671,-87.9365,-0.9,12.63,2 
DISL,ioos:station:DISL:MHPA:1,2017-12-12T00:30:00Z,30.6671,-87.9365,-0.9,12.55,2 
DISL,ioos:station:DISL:MHPA:1,2017-12-12T01:30:00Z,30.6671,-87.9365,-0.9,12.59,2 
DISL,ioos:station:DISL:MHPA:1,2017-12-12T02:30:00Z,30.6671,-87.9365,-0.9,12.5,2 
DISL,ioos:station:DISL:MHPA:1,2017-12-12T03:30:00Z,30.6671,-87.9365,-0.9,12.43,2 
DISL,ioos:station:DISL:MHPA:1,2017-12-12T04:30:00Z,30.6671,-87.9365,-0.9,11.89,2 
DISL,ioos:station:DISL:MHPA:1,2017-12-12T05:30:00Z,30.6671,-87.9365,-0.9,11.67,2 
DISL,ioos:station:DISL:MHPA:1,2017-12-12T06:30:00Z,30.6671,-87.9365,-0.9,11.77,2 
DISL,ioos:station:DISL:MHPA:1,2017-12-12T07:30:00Z,30.6671,-87.9365,-0.9,12.04,2 
DISL,ioos:station:DISL:MHPA:1,2017-12-12T08:30:00Z,30.6671,-87.9365,-0.9,11.78,2 
DISL,ioos:station:DISL:MHPA:1,2017-12-12T09:30:00Z,30.6671,-87.9365,-0.9,11.7,2 
DISL,ioos:station:DISL:MHPA:1,2017-12-12T10:30:00Z,30.6671,-87.9365,-0.9,11.62,2 
DISL,ioos:station:DISL:MHPA:1,2017-12-12T11:30:00Z,30.6671,-87.9365,-0.9,11.67,2 
DISL,ioos:station:DISL:MHPA:1,2017-12-12T12:30:00Z,30.6671,-87.9365,-0.9,11.66,2 
DISL,ioos:station:DISL:MHPA:1,2017-12-12T13:30:00Z,30.6671,-87.9365,-0.9,12.05,2 
DISL,ioos:station:DISL:MHPA:1,2017-12-12T14:30:00Z,30.6671,-87.9365,-0.9,11.54,2 
DISL,ioos:station:DISL:MHPA:1,2017-12-12T15:30:00Z,30.6671,-87.9365,-0.9,11.98,2 
DISL,ioos:station:DISL:MHPA:1,2017-12-12T16:30:00Z,30.6671,-87.9365,-0.9,12.33,2 
DISL,ioos:station:DISL:MHPA:1,2017-12-12T17:30:00Z,30.6671,-87.9365,-0.9,12.43,2 
DISL,ioos:station:DISL:MHPA:1,2017-12-12T18:30:00Z,30.6671,-87.9365,-0.9,12.43,2 
DISL,ioos:station:DISL:MHPA:1,2017-12-12T19:30:00Z,30.6671,-87.9365,-0.9,12.69,2 
DISL,ioos:station:DISL:MHPA:1,2017-12-12T20:30:00Z,30.6671,-87.9365,-0.9,12.92,2 
DISL,ioos:station:DISL:MHPA:1,2017-12-12T21:30:00Z,30.6671,-87.9365,-0.9,13.23,2 
DISL,ioos:station:DISL:MHPA:1,2017-12-12T22:30:00Z,30.6671,-87.9365,-0.9,12.93,2 
DISL,ioos:station:DISL:MHPA:1,2017-12-13T09:30:00Z,30.6671,-87.9365,-0.9,12.99,2 
DISL,ioos:station:DISL:MHPA:1,2017-12-13T10:30:00Z,30.6671,-87.9365,-0.9,13.01,2 
DISL,ioos:station:DISL:MHPA:1,2017-12-13T11:30:00Z,30.6671,-87.9365,-0.9,12.89,2 
DISL,ioos:station:DISL:MHPA:1,2017-12-13T12:30:00Z,30.6671,-87.9365,-0.9,12.86,2 
DISL,ioos:station:DISL:MHPA:1,2017-12-13T13:30:00Z,30.6671,-87.9365,-0.9,12.71,2 
DISL,ioos:station:DISL:MHPA:1,2017-12-13T14:30:00Z,30.6671,-87.9365,-0.9,12.89,2 